Zurück zum Katalog

STARLINK-37938

AktivKommunikationSSO
NORAD 69568·PAYLOAD·🇺🇸 United States

Gestartet Jun 15, 2026 von Vandenberg Space Force Base

Loading…

Nächste Überflüge (nächste 24 Stunden)

TLE

AktuellSource: CelesTrak SupGP

Epoche: Sep 15, 2026, 03:11 UTC

1 69568C 26135Y   26258.13312500 -.00050357  00000+0 -15632-2 0  2587
2 69568  97.2837 285.9619 0001489  99.1271 201.8838 15.33463836    16

Verfolge STARLINK-37938 in Echtzeit mit AllMySat

Download on the App Store